Saint Bonnet de Bellac- Haute Vienne - France
Donnes mto: samedi, 11/08/2012
Date Horaire Temp. E. Hum. E. P.atmo. Pluie Vent Direction Direction Ensoleilleme Solaire P. de rose Temp au vent Rafales
11/08/2012 00:00 19,8 C 64 % 1019,6 hPa 0,0 mm 0,0 km/h (0 Bft) E 90 0 min 0 W/m 12,8 C 19,8 C 0,0 km/h (0 Bft)
11/08/2012 00:10 19,6 C 64 % 1019,5 hPa 0,0 mm 0,0 km/h (0 Bft) E 90 0 min 0 W/m 12,6 C 19,6 C 0,0 km/h (0 Bft)
11/08/2012 00:20 19,2 C 65 % 1019,3 hPa 0,0 mm 0,0 km/h (0 Bft) E 90 0 min 0 W/m 12,5 C 19,2 C 0,0 km/h (0 Bft)
11/08/2012 00:30 18,9 C 65 % 1019,2 hPa 0,0 mm 0,0 km/h (0 Bft) E-NE 67 0 min 0 W/m 12,2 C 18,9 C 0,0 km/h (0 Bft)
11/08/2012 00:40 18,6 C 66 % 1019,2 hPa 0,0 mm 0,0 km/h (0 Bft) E-SE 112 0 min 0 W/m 12,1 C 18,6 C 0,0 km/h (0 Bft)
11/08/2012 00:50 18,4 C 67 % 1019,2 hPa 0,0 mm 0,0 km/h (0 Bft) E-NE 67 0 min 0 W/m 12,2 C 18,4 C 0,0 km/h (0 Bft)
11/08/2012 01:00 18,3 C 67 % 1019,2 hPa 0,0 mm 0,0 km/h (0 Bft) E 90 0 min 0 W/m 12,1 C 18,3 C 0,0 km/h (0 Bft)
11/08/2012 01:10 18,2 C 67 % 1019,2 hPa 0,0 mm 0,0 km/h (0 Bft) E 90 0 min 0 W/m 12,0 C 18,2 C 0,0 km/h (0 Bft)
11/08/2012 01:20 17,9 C 68 % 1019,1 hPa 0,0 mm 0,0 km/h (0 Bft) E-NE 67 0 min 0 W/m 11,9 C 17,9 C 0,0 km/h (0 Bft)
11/08/2012 01:30 17,8 C 69 % 1019,1 hPa 0,0 mm 0,0 km/h (0 Bft) N-NE 22 0 min 0 W/m 12,0 C 17,8 C 0,0 km/h (0 Bft)
11/08/2012 01:40 17,5 C 69 % 1019,2 hPa 0,0 mm 0,0 km/h (0 Bft) N-NE 22 0 min 0 W/m 11,7 C 17,5 C 0,0 km/h (0 Bft)
11/08/2012 01:50 17,2 C 70 % 1019,0 hPa 0,0 mm 0,0 km/h (0 Bft) N-NE 22 0 min 0 W/m 11,7 C 17,2 C 0,0 km/h (0 Bft)
11/08/2012 02:00 16,9 C 70 % 1019,0 hPa 0,0 mm 0,0 km/h (0 Bft) N-NE 22 0 min 0 W/m 11,4 C 16,9 C 0,0 km/h (0 Bft)
11/08/2012 02:10 16,7 C 71 % 1018,9 hPa 0,0 mm 0,0 km/h (0 Bft) N 360 0 min 0 W/m 11,4 C 16,7 C 0,0 km/h (0 Bft)
11/08/2012 02:20 16,5 C 71 % 1018,9 hPa 0,0 mm 0,0 km/h (0 Bft) N 360 0 min 0 W/m 11,2 C 16,5 C 0,0 km/h (0 Bft)
11/08/2012 02:30 16,4 C 72 % 1018,8 hPa 0,0 mm 0,0 km/h (0 Bft) NE 45 0 min 0 W/m 11,3 C 16,4 C 0,0 km/h (0 Bft)
11/08/2012 02:40 16,3 C 73 % 1018,8 hPa 0,0 mm 0,0 km/h (0 Bft) N-NE 22 0 min 0 W/m 11,4 C 16,3 C 0,0 km/h (0 Bft)
11/08/2012 02:50 15,9 C 73 % 1018,7 hPa 0,0 mm 0,0 km/h (0 Bft) N-NE 22 0 min 0 W/m 11,1 C 15,9 C 0,0 km/h (0 Bft)
11/08/2012 03:02 15,6 C 74 % 1018,7 hPa 0,0 mm 0,0 km/h (0 Bft) N-NE 22 0 min 0 W/m 11,0 C 15,6 C 0,0 km/h (0 Bft)
11/08/2012 03:10 15,3 C 74 % 1018,5 hPa 0,0 mm 0,0 km/h (0 Bft) NE 45 0 min 0 W/m 10,7 C 15,3 C 0,0 km/h (0 Bft)
11/08/2012 03:20 15,1 C 75 % 1018,4 hPa 0,0 mm 0,0 km/h (0 Bft) E-NE 67 0 min 0 W/m 10,7 C 15,1 C 0,0 km/h (0 Bft)
11/08/2012 03:30 14,9 C 76 % 1018,4 hPa 0,0 mm 0,0 km/h (0 Bft) N 360 0 min 0 W/m 10,7 C 14,9 C 0,0 km/h (0 Bft)
11/08/2012 03:40 14,6 C 76 % 1018,2 hPa 0,0 mm 0,0 km/h (0 Bft) N-NE 22 0 min 0 W/m 10,4 C 14,6 C 0,0 km/h (0 Bft)
11/08/2012 03:50 14,4 C 77 % 1018,2 hPa 0,0 mm 0,0 km/h (0 Bft) N-NE 22 0 min 0 W/m 10,4 C 14,4 C 0,0 km/h (0 Bft)
11/08/2012 04:00 14,2 C 78 % 1018,2 hPa 0,0 mm 0,0 km/h (0 Bft) N 360 0 min 0 W/m 10,4 C 14,2 C 0,0 km/h (0 Bft)
11/08/2012 04:10 13,9 C 79 % 1018,2 hPa 0,0 mm 0,0 km/h (0 Bft) NE 45 0 min 0 W/m 10,3 C 13,9 C 0,0 km/h (0 Bft)
11/08/2012 04:20 13,8 C 79 % 1018,2 hPa 0,0 mm 0,0 km/h (0 Bft) NE 45 0 min 0 W/m 10,2 C 13,8 C 0,0 km/h (0 Bft)
11/08/2012 04:30 13,7 C 80 % 1018,1 hPa 0,0 mm 0,0 km/h (0 Bft) NE 45 0 min 0 W/m 10,3 C 13,7 C 0,0 km/h (0 Bft)
11/08/2012 04:40 13,7 C 80 % 1018,0 hPa 0,0 mm 0,0 km/h (0 Bft) NE 45 0 min 0 W/m 10,3 C 13,7 C 0,0 km/h (0 Bft)
11/08/2012 04:50 13,6 C 80 % 1017,7 hPa 0,0 mm 0,4 km/h (0 Bft) NE 45 0 min 0 W/m 10,2 C 13,6 C 0,4 km/h (0 Bft)
11/08/2012 05:00 13,6 C 81 % 1017,5 hPa 0,0 mm 0,0 km/h (0 Bft) E 90 0 min 0 W/m 10,4 C 13,6 C 0,0 km/h (0 Bft)
11/08/2012 05:10 13,5 C 81 % 1017,4 hPa 0,0 mm 0,0 km/h (0 Bft) E 90 0 min 0 W/m 10,3 C 13,5 C 0,0 km/h (0 Bft)
11/08/2012 05:20 13,4 C 81 % 1017,2 hPa 0,0 mm 0,0 km/h (0 Bft) NE 45 0 min 0 W/m 10,2 C 13,4 C 0,0 km/h (0 Bft)
11/08/2012 05:30 13,3 C 81 % 1017,1 hPa 0,0 mm 0,0 km/h (0 Bft) E 90 0 min 0 W/m 10,1 C 13,3 C 0,0 km/h (0 Bft)
11/08/2012 05:40 13,2 C 83 % 1017,0 hPa 0,0 mm 0,0 km/h (0 Bft) E-SE 112 0 min 0 W/m 10,4 C 13,2 C 0,0 km/h (0 Bft)
11/08/2012 05:50 13,1 C 83 % 1017,0 hPa 0,0 mm 0,0 km/h (0 Bft) S-SE 157 0 min 0 W/m 10,3 C 13,1 C 0,0 km/h (0 Bft)
11/08/2012 06:00 12,8 C 83 % 1017,1 hPa 0,0 mm 0,0 km/h (0 Bft) S-SE 157 0 min 0 W/m 10,0 C 12,8 C 0,0 km/h (0 Bft)
11/08/2012 06:10 12,5 C 84 % 1017,2 hPa 0,0 mm 0,0 km/h (0 Bft) S-SO 202 0 min 0 W/m 9,9 C 12,5 C 0,0 km/h (0 Bft)
11/08/2012 06:20 12,3 C 85 % 1017,2 hPa 0,0 mm 0,0 km/h (0 Bft) S-SE 157 0 min 0 W/m 9,9 C 12,3 C 0,0 km/h (0 Bft)
11/08/2012 06:30 12,1 C 84 % 1017,3 hPa 0,0 mm 0,0 km/h (0 Bft) S-SE 157 0 min 0 W/m 9,5 C 12,1 C 0,0 km/h (0 Bft)
11/08/2012 06:40 11,9 C 84 % 1017,3 hPa 0,0 mm 0,0 km/h (0 Bft) NE 45 0 min 0 W/m 9,3 C 11,9 C 0,0 km/h (0 Bft)
11/08/2012 06:50 11,8 C 85 % 1017,4 hPa 0,0 mm 0,0 km/h (0 Bft) NE 45 0 min 0 W/m 9,4 C 11,8 C 0,0 km/h (0 Bft)
11/08/2012 07:00 11,6 C 85 % 1017,2 hPa 0,0 mm 0,0 km/h (0 Bft) NE 45 0 min 0 W/m 9,2 C 11,6 C 0,0 km/h (0 Bft)
11/08/2012 07:10 11,6 C 85 % 1017,3 hPa 0,0 mm 0,0 km/h (0 Bft) NE 45 0 min 0 W/m 9,2 C 11,6 C 0,0 km/h (0 Bft)
11/08/2012 07:20 11,5 C 86 % 1017,2 hPa 0,0 mm 0,0 km/h (0 Bft) N-NE 22 0 min 0 W/m 9,2 C 11,5 C 0,0 km/h (0 Bft)
11/08/2012 07:30 11,4 C 86 % 1017,0 hPa 0,0 mm 0,0 km/h (0 Bft) NE 45 0 min 0 W/m 9,1 C 11,4 C 0,0 km/h (0 Bft)
11/08/2012 07:40 11,5 C 86 % 1016,9 hPa 0,0 mm 0,0 km/h (0 Bft) NE 45 0 min 0 W/m 9,2 C 11,5 C 0,0 km/h (0 Bft)
11/08/2012 07:50 11,6 C 87 % 1016,9 hPa 0,0 mm 0,0 km/h (0 Bft) S-SO 202 0 min 0 W/m 9,5 C 11,6 C 0,0 km/h (0 Bft)
11/08/2012 08:00 11,7 C 88 % 1016,8 hPa 0,0 mm 0,7 km/h (0 Bft) E-NE 67 0 min 0 W/m 9,8 C 11,7 C 4,3 km/h (1 Bft)
11/08/2012 08:10 12,2 C 88 % 1016,9 hPa 0,0 mm 2,2 km/h (1 Bft) E-NE 67 0 min 0 W/m 10,3 C 12,2 C 3,6 km/h (1 Bft)
11/08/2012 08:20 12,6 C 88 % 1016,8 hPa 0,0 mm 2,5 km/h (1 Bft) E 90 0 min 0 W/m 10,7 C 12,6 C 3,6 km/h (1 Bft)
11/08/2012 08:30 13,1 C 88 % 1016,9 hPa 0,0 mm 1,1 km/h (1 Bft) E 90 0 min 0 W/m 11,2 C 13,1 C 4,3 km/h (1 Bft)
11/08/2012 08:40 13,6 C 87 % 1016,8 hPa 0,0 mm 0,0 km/h (0 Bft) NE 45 0 min 0 W/m 11,5 C 13,6 C 0,0 km/h (0 Bft)
11/08/2012 08:50 14,0 C 86 % 1016,8 hPa 0,0 mm 1,4 km/h (1 Bft) NE 45 0 min 0 W/m 11,7 C 14,0 C 4,3 km/h (1 Bft)
11/08/2012 09:00 14,4 C 86 % 1016,7 hPa 0,0 mm 2,2 km/h (1 Bft) E-NE 67 0 min 0 W/m 12,1 C 14,4 C 3,6 km/h (1 Bft)
11/08/2012 09:10 14,9 C 86 % 1016,5 hPa 0,0 mm 2,5 km/h (1 Bft) E-NE 67 0 min 0 W/m 12,6 C 14,9 C 4,3 km/h (1 Bft)
11/08/2012 09:20 15,4 C 85 % 1016,6 hPa 0,0 mm 0,0 km/h (0 Bft) E-NE 67 0 min 0 W/m 12,9 C 15,4 C 0,0 km/h (0 Bft)
11/08/2012 09:30 16,1 C 84 % 1016,6 hPa 0,0 mm 0,0 km/h (0 Bft) E-SE 112 0 min 0 W/m 13,4 C 16,1 C 0,0 km/h (0 Bft)
11/08/2012 09:40 17,1 C 82 % 1016,6 hPa 0,0 mm 1,8 km/h (1 Bft) NE 45 0 min 0 W/m 14,0 C 17,1 C 3,6 km/h (1 Bft)
11/08/2012 09:50 18,2 C 80 % 1016,6 hPa 0,0 mm 0,4 km/h (0 Bft) NE 45 0 min 0 W/m 14,7 C 18,2 C 0,4 km/h (0 Bft)
11/08/2012 10:00 19,4 C 77 % 1016,7 hPa 0,0 mm 1,1 km/h (1 Bft) E-NE 67 0 min 0 W/m 15,3 C 19,4 C 3,6 km/h (1 Bft)
11/08/2012 10:10 20,6 C 74 % 1016,6 hPa 0,0 mm 0,4 km/h (0 Bft) E 90 0 min 0 W/m 15,8 C 20,6 C 4,0 km/h (1 Bft)
11/08/2012 10:20 21,8 C 69 % 1016,7 hPa 0,0 mm 0,7 km/h (0 Bft) E-NE 67 0 min 0 W/m 15,9 C 21,8 C 0,7 km/h (0 Bft)
11/08/2012 10:30 22,8 C 65 % 1016,5 hPa 0,0 mm 1,8 km/h (1 Bft) E-NE 67 0 min 0 W/m 15,9 C 22,8 C 2,9 km/h (1 Bft)
11/08/2012 10:40 23,9 C 63 % 1016,4 hPa 0,0 mm 2,5 km/h (1 Bft) SE 135 0 min 0 W/m 16,4 C 23,9 C 3,6 km/h (1 Bft)
11/08/2012 10:50 24,9 C 59 % 1016,3 hPa 0,0 mm 1,8 km/h (1 Bft) E-SE 112 0 min 0 W/m 16,3 C 24,9 C 4,3 km/h (1 Bft)
11/08/2012 11:00 25,5 C 56 % 1016,2 hPa 0,0 mm 2,9 km/h (1 Bft) SE 135 0 min 0 W/m 16,1 C 25,5 C 4,3 km/h (1 Bft)
11/08/2012 11:10 26,3 C 54 % 1016,1 hPa 0,0 mm 0,7 km/h (0 Bft) E-NE 67 0 min 0 W/m 16,2 C 26,3 C 3,2 km/h (1 Bft)
11/08/2012 11:20 27,1 C 52 % 1016,0 hPa 0,0 mm 0,0 km/h (0 Bft) NE 45 0 min 0 W/m 16,4 C 27,1 C 0,0 km/h (0 Bft)
11/08/2012 11:30 27,9 C 51 % 1015,9 hPa 0,0 mm 2,9 km/h (1 Bft) E-NE 67 0 min 0 W/m 16,8 C 27,9 C 4,0 km/h (1 Bft)
11/08/2012 11:40 28,3 C 49 % 1015,8 hPa 0,0 mm 2,2 km/h (1 Bft) E-NE 67 0 min 0 W/m 16,5 C 28,3 C 4,0 km/h (1 Bft)
11/08/2012 11:50 28,9 C 48 % 1015,6 hPa 0,0 mm 2,9 km/h (1 Bft) E-SE 112 0 min 0 W/m 16,8 C 28,9 C 4,0 km/h (1 Bft)
11/08/2012 12:00 29,3 C 46 % 1015,5 hPa 0,0 mm 0,4 km/h (0 Bft) NE 45 0 min 0 W/m 16,5 C 29,3 C 3,2 km/h (1 Bft)
11/08/2012 12:10 29,4 C 45 % 1015,6 hPa 0,0 mm 0,4 km/h (0 Bft) S-SO 202 0 min 0 W/m 16,2 C 29,4 C 0,4 km/h (0 Bft)
11/08/2012 12:20 29,9 C 44 % 1015,5 hPa 0,0 mm 3,6 km/h (1 Bft) E-SE 112 0 min 0 W/m 16,3 C 29,9 C 3,6 km/h (1 Bft)
11/08/2012 12:30 30,5 C 43 % 1015,4 hPa 0,0 mm 2,5 km/h (1 Bft) E-SE 112 0 min 0 W/m 16,5 C 30,5 C 4,7 km/h (1 Bft)
11/08/2012 12:40 30,8 C 42 % 1015,4 hPa 0,0 mm 0,7 km/h (0 Bft) E 90 0 min 0 W/m 16,4 C 30,8 C 3,6 km/h (1 Bft)
11/08/2012 12:50 31,2 C 41 % 1015,3 hPa 0,0 mm 1,4 km/h (1 Bft) E 90 0 min 0 W/m 16,4 C 31,2 C 6,1 km/h (2 Bft)
11/08/2012 13:00 31,4 C 40 % 1015,3 hPa 0,0 mm 2,5 km/h (1 Bft) SE 135 0 min 0 W/m 16,1 C 31,4 C 3,2 km/h (1 Bft)
11/08/2012 13:10 31,5 C 37 % 1015,3 hPa 0,0 mm 2,2 km/h (1 Bft) S 180 0 min 0 W/m 15,0 C 31,5 C 2,9 km/h (1 Bft)
11/08/2012 13:20 31,7 C 38 % 1015,3 hPa 0,0 mm 0,0 km/h (0 Bft) S 180 0 min 0 W/m 15,6 C 31,7 C 0,0 km/h (0 Bft)
11/08/2012 13:30 31,9 C 38 % 1015,1 hPa 0,0 mm 4,3 km/h (1 Bft) S-SE 157 0 min 0 W/m 15,8 C 31,9 C 4,3 km/h (1 Bft)
11/08/2012 13:40 32,1 C 37 % 1015,0 hPa 0,0 mm 4,0 km/h (1 Bft) S-SO 202 0 min 0 W/m 15,5 C 32,1 C 4,0 km/h (1 Bft)
11/08/2012 13:50 32,3 C 37 % 1014,9 hPa 0,0 mm 1,4 km/h (1 Bft) S-SO 202 0 min 0 W/m 15,7 C 32,3 C 6,1 km/h (2 Bft)
11/08/2012 14:00 32,5 C 37 % 1014,8 hPa 0,0 mm 0,0 km/h (0 Bft) O-SO 247 0 min 0 W/m 15,9 C 32,5 C 0,0 km/h (0 Bft)
11/08/2012 14:10 32,6 C 37 % 1014,7 hPa 0,0 mm 0,0 km/h (0 Bft) S-SO 202 0 min 0 W/m 16,0 C 32,6 C 0,0 km/h (0 Bft)
11/08/2012 14:20 33,1 C 36 % 1014,6 hPa 0,0 mm 2,2 km/h (1 Bft) O-SO 247 0 min 0 W/m 16,0 C 33,1 C 3,6 km/h (1 Bft)
11/08/2012 14:30 33,2 C 36 % 1014,5 hPa 0,0 mm 2,2 km/h (1 Bft) E-SE 112 0 min 0 W/m 16,1 C 33,2 C 6,5 km/h (2 Bft)
11/08/2012 14:40 33,4 C 35 % 1014,3 hPa 0,0 mm 1,8 km/h (1 Bft) E 90 0 min 0 W/m 15,8 C 33,4 C 4,3 km/h (1 Bft)
11/08/2012 14:50 33,8 C 32 % 1014,3 hPa 0,0 mm 4,0 km/h (1 Bft) S-SO 202 0 min 0 W/m 14,8 C 33,8 C 7,6 km/h (2 Bft)
11/08/2012 15:00 33,5 C 33 % 1014,1 hPa 0,0 mm 5,0 km/h (1 Bft) S-SO 202 0 min 0 W/m 15,0 C 33,5 C 6,5 km/h (2 Bft)
11/08/2012 15:10 33,5 C 33 % 1014,0 hPa 0,0 mm 1,4 km/h (1 Bft) SE 135 0 min 0 W/m 15,0 C 33,5 C 6,5 km/h (2 Bft)
11/08/2012 15:20 33,8 C 33 % 1014,0 hPa 0,0 mm 2,5 km/h (1 Bft) O-SO 247 0 min 0 W/m 15,2 C 33,8 C 6,8 km/h (2 Bft)
11/08/2012 15:30 33,8 C 33 % 1014,0 hPa 0,0 mm 2,5 km/h (1 Bft) SO 225 0 min 0 W/m 15,2 C 33,8 C 2,5 km/h (1 Bft)
11/08/2012 15:40 33,8 C 34 % 1013,9 hPa 0,0 mm 4,0 km/h (1 Bft) SO 225 0 min 0 W/m 15,7 C 33,8 C 8,6 km/h (2 Bft)
11/08/2012 15:50 33,8 C 33 % 1013,9 hPa 0,0 mm 1,1 km/h (1 Bft) O 270 0 min 0 W/m 15,2 C 33,8 C 3,6 km/h (1 Bft)
11/08/2012 16:00 34,2 C 34 % 1013,8 hPa 0,0 mm 0,0 km/h (0 Bft) O 270 0 min 0 W/m 16,1 C 34,2 C 0,0 km/h (0 Bft)
11/08/2012 16:10 34,3 C 32 % 1013,6 hPa 0,0 mm 7,9 km/h (2 Bft) SO 225 0 min 0 W/m 15,2 C 34,3 C 15,5 km/h (3 Bft)
11/08/2012 16:20 34,3 C 33 % 1013,4 hPa 0,0 mm 1,8 km/h (1 Bft) SO 225 0 min 0 W/m 15,7 C 34,3 C 6,1 km/h (2 Bft)
11/08/2012 16:30 34,4 C 33 % 1013,3 hPa 0,0 mm 5,0 km/h (1 Bft) S-SO 202 0 min 0 W/m 15,8 C 34,4 C 6,1 km/h (2 Bft)
11/08/2012 16:40 34,3 C 34 % 1013,3 hPa 0,0 mm 1,8 km/h (1 Bft) S 180 0 min 0 W/m 16,1 C 34,3 C 4,3 km/h (1 Bft)
11/08/2012 16:50 34,5 C 33 % 1013,2 hPa 0,0 mm 3,2 km/h (1 Bft) S 180 0 min 0 W/m 15,8 C 34,5 C 7,9 km/h (2 Bft)
11/08/2012 17:00 34,6 C 31 % 1013,1 hPa 0,0 mm 4,0 km/h (1 Bft) O 270 0 min 0 W/m 15,0 C 34,6 C 8,3 km/h (2 Bft)
11/08/2012 17:10 34,8 C 31 % 1013,0 hPa 0,0 mm 4,7 km/h (1 Bft) S-SO 202 0 min 0 W/m 15,1 C 34,8 C 4,7 km/h (1 Bft)
11/08/2012 17:20 34,8 C 32 % 1012,9 hPa 0,0 mm 1,4 km/h (1 Bft) O 270 0 min 0 W/m 15,6 C 34,8 C 6,8 km/h (2 Bft)
11/08/2012 17:30 34,8 C 32 % 1012,8 hPa 0,0 mm 4,7 km/h (1 Bft) S-SO 202 0 min 0 W/m 15,6 C 34,8 C 9,7 km/h (2 Bft)
11/08/2012 17:40 34,5 C 31 % 1012,7 hPa 0,0 mm 7,2 km/h (2 Bft) SO 225 0 min 0 W/m 14,9 C 34,5 C 12,2 km/h (2 Bft)
11/08/2012 17:50 34,3 C 34 % 1012,7 hPa 0,0 mm 12,2 km/h (2 Bft) S-SE 157 0 min 0 W/m 16,1 C 34,3 C 15,5 km/h (3 Bft)
11/08/2012 18:00 33,8 C 35 % 1012,6 hPa 0,0 mm 9,0 km/h (2 Bft) S-SO 202 0 min 0 W/m 16,2 C 33,8 C 9,7 km/h (2 Bft)
11/08/2012 18:10 33,3 C 36 % 1012,5 hPa 0,0 mm 6,8 km/h (2 Bft) O-SO 247 0 min 0 W/m 16,2 C 33,3 C 11,2 km/h (2 Bft)
11/08/2012 18:20 32,8 C 36 % 1012,6 hPa 0,0 mm 9,0 km/h (2 Bft) S-SO 202 0 min 0 W/m 15,7 C 32,8 C 11,5 km/h (2 Bft)
11/08/2012 18:30 32,2 C 43 % 1012,6 hPa 0,0 mm 9,4 km/h (2 Bft) S-SO 202 0 min 0 W/m 18,0 C 32,2 C 14,8 km/h (3 Bft)
11/08/2012 18:40 31,2 C 50 % 1012,7 hPa 0,0 mm 9,7 km/h (2 Bft) S-SO 202 0 min 0 W/m 19,5 C 31,2 C 9,7 km/h (2 Bft)
11/08/2012 18:50 30,6 C 53 % 1012,6 hPa 0,0 mm 12,6 km/h (3 Bft) S-SO 202 0 min 0 W/m 19,9 C 30,6 C 14,8 km/h (3 Bft)
11/08/2012 19:00 29,9 C 54 % 1012,7 hPa 0,0 mm 8,6 km/h (2 Bft) S-SE 157 0 min 0 W/m 19,6 C 29,9 C 12,2 km/h (2 Bft)
11/08/2012 19:10 28,8 C 56 % 1012,8 hPa 0,0 mm 9,0 km/h (2 Bft) S-SO 202 0 min 0 W/m 19,1 C 28,8 C 9,0 km/h (2 Bft)
11/08/2012 19:20 28,1 C 58 % 1012,9 hPa 0,0 mm 8,6 km/h (2 Bft) S-SO 202 0 min 0 W/m 19,0 C 28,1 C 15,1 km/h (3 Bft)
11/08/2012 19:30 27,3 C 60 % 1013,0 hPa 0,0 mm 5,8 km/h (2 Bft) S-SO 202 0 min 0 W/m 18,8 C 27,3 C 10,8 km/h (2 Bft)
11/08/2012 19:40 26,6 C 62 % 1013,1 hPa 0,0 mm 11,2 km/h (2 Bft) S-SO 202 0 min 0 W/m 18,7 C 26,6 C 11,2 km/h (2 Bft)
11/08/2012 19:50 25,9 C 64 % 1013,1 hPa 0,0 mm 11,5 km/h (2 Bft) S 180 0 min 0 W/m 18,6 C 25,9 C 14,4 km/h (3 Bft)
11/08/2012 20:00 25,4 C 65 % 1013,2 hPa 0,0 mm 6,8 km/h (2 Bft) S-SO 202 0 min 0 W/m 18,3 C 25,4 C 12,6 km/h (3 Bft)
11/08/2012 20:10 24,6 C 66 % 1013,3 hPa 0,0 mm 10,4 km/h (2 Bft) O-SO 247 0 min 0 W/m 17,8 C 24,6 C 25,2 km/h (4 Bft)
11/08/2012 20:20 24,1 C 67 % 1013,4 hPa 0,0 mm 8,3 km/h (2 Bft) SO 225 0 min 0 W/m 17,6 C 24,1 C 14,8 km/h (3 Bft)
11/08/2012 20:30 23,6 C 69 % 1013,5 hPa 0,0 mm 10,4 km/h (2 Bft) S-SO 202 0 min 0 W/m 17,6 C 23,6 C 21,6 km/h (4 Bft)
11/08/2012 20:40 23,2 C 71 % 1013,8 hPa 0,0 mm 6,8 km/h (2 Bft) SO 225 0 min 0 W/m 17,6 C 23,2 C 8,6 km/h (2 Bft)
11/08/2012 20:50 22,7 C 71 % 1013,9 hPa 0,0 mm 10,4 km/h (2 Bft) O-NO 292 0 min 0 W/m 17,2 C 22,7 C 15,8 km/h (3 Bft)
11/08/2012 21:00 22,2 C 72 % 1014,0 hPa 0,0 mm 6,5 km/h (2 Bft) O-SO 247 0 min 0 W/m 16,9 C 22,2 C 13,7 km/h (3 Bft)
11/08/2012 21:10 21,8 C 74 % 1014,1 hPa 0,0 mm 4,3 km/h (1 Bft) SO 225 0 min 0 W/m 17,0 C 21,8 C 10,1 km/h (2 Bft)
11/08/2012 21:20 21,6 C 75 % 1014,3 hPa 0,0 mm 3,6 km/h (1 Bft) SO 225 0 min 0 W/m 17,0 C 21,6 C 6,1 km/h (2 Bft)
11/08/2012 21:30 21,5 C 75 % 1014,3 hPa 0,0 mm 2,2 km/h (1 Bft) O-SO 247 0 min 0 W/m 16,9 C 21,5 C 3,6 km/h (1 Bft)
11/08/2012 21:40 21,4 C 76 % 1014,4 hPa 0,0 mm 5,4 km/h (2 Bft) O-SO 247 0 min 0 W/m 17,0 C 21,4 C 9,7 km/h (2 Bft)
11/08/2012 21:50 21,4 C 77 % 1014,5 hPa 0,0 mm 4,7 km/h (1 Bft) SO 225 0 min 0 W/m 17,2 C 21,4 C 4,7 km/h (1 Bft)
11/08/2012 22:00 21,3 C 77 % 1014,6 hPa 0,0 mm 2,9 km/h (1 Bft) O-SO 247 0 min 0 W/m 17,1 C 21,3 C 4,0 km/h (1 Bft)
11/08/2012 22:10 21,1 C 78 % 1014,7 hPa 0,0 mm 5,4 km/h (2 Bft) S-SO 202 0 min 0 W/m 17,1 C 21,1 C 6,8 km/h (2 Bft)
11/08/2012 22:20 21,1 C 78 % 1014,8 hPa 0,0 mm 6,1 km/h (2 Bft) O-SO 247 0 min 0 W/m 17,1 C 21,1 C 10,4 km/h (2 Bft)
11/08/2012 22:30 20,9 C 78 % 1014,7 hPa 0,0 mm 7,2 km/h (2 Bft) O-SO 247 0 min 0 W/m 16,9 C 20,9 C 13,7 km/h (3 Bft)
11/08/2012 22:40 20,8 C 78 % 1014,8 hPa 0,0 mm 6,1 km/h (2 Bft) S-SO 202 0 min 0 W/m 16,8 C 20,8 C 6,1 km/h (2 Bft)
11/08/2012 22:50 20,8 C 78 % 1014,7 hPa 0,0 mm 3,6 km/h (1 Bft) S-SO 202 0 min 0 W/m 16,8 C 20,8 C 7,6 km/h (2 Bft)
11/08/2012 23:00 20,6 C 79 % 1014,7 hPa 0,0 mm 2,5 km/h (1 Bft) S 180 0 min 0 W/m 16,8 C 20,6 C 3,6 km/h (1 Bft)
11/08/2012 23:10 20,6 C 80 % 1014,9 hPa 0,0 mm 5,4 km/h (2 Bft) O-SO 247 0 min 0 W/m 17,0 C 20,6 C 9,7 km/h (2 Bft)
11/08/2012 23:20 20,6 C 80 % 1014,8 hPa 0,0 mm 8,6 km/h (2 Bft) S-SO 202 0 min 0 W/m 17,0 C 20,6 C 16,6 km/h (3 Bft)
11/08/2012 23:30 20,4 C 80 % 1014,8 hPa 0,0 mm 6,5 km/h (2 Bft) S-SO 202 0 min 0 W/m 16,8 C 20,4 C 7,6 km/h (2 Bft)
11/08/2012 23:40 20,3 C 80 % 1014,9 hPa 0,0 mm 5,8 km/h (2 Bft) SO 225 0 min 0 W/m 16,7 C 20,3 C 6,8 km/h (2 Bft)
11/08/2012 23:50 20,3 C 80 % 1014,8 hPa 0,0 mm 5,8 km/h (2 Bft) S-SO 202 0 min 0 W/m 16,7 C 20,3 C 8,3 km/h (2 Bft)
_ Min-Heure 07:30 17:40 18:10 - 16:00 - - - - 07:30 07:30 16:00
Minimum _ 11,4 C 31 % 1012,5 hPa - 0,0 km/h (0 Bft) - - - - 9,1 C 11,4 C 0,0 km/h (0 Bft)
_ Max-Heure 17:30 08:30 00:00 23:50 18:50 - - 23:50 23:50 18:50 17:30 20:10
Maximum _ 34,8 C 88 % 1019,6 hPa 0,0 mm 12,6 km/h
S-SO (3 Bft)
- - 0 min 0 W/m 19,9 C 34,8 C 25,2 km/h
O-SO (4 Bft)
Moyenne _ 22,6 C 63 % 1015,8 hPa #0,0 mm 2,8 km/h (1 Bft) S-SO - #0 min. 0 W/m 14,2 C 22,6 C 4,6 km/h (1 Bft)
Saint Bonnet de Bellac- Haute Vienne - France